Pittsburgh, PA

12:58 AM EST on November 19, 2017 (GMT -0500)
Pittsburgh International

Weather History for KPIT - March, 2013

Change the Weather History Date:

Tuesday, March 19, 2013

  Actual Average Record
Temperature  
Mean Temperature 37 °F 41 °F  
Max Temperature 43 °F 50 °F 78 °F (1898)
Min Temperature 30 °F 31 °F 6 °F (1967)
Degree Days  
Heating Degree Days 28 24  
Month to date heating degree days 546 525  
Since 1 July heating degree days 4658 4782  
Cooling Degree Days 0 0  
Month to date cooling degree days 0 0  
Year to date cooling degree days 0 0  
Moisture  
Dew Point 25 °F    
Average Humidity 67    
Maximum Humidity 93    
Minimum Humidity 40    
Precipitation  
Precipitation 0.03 in 0.09 in 1.60 in (1996)
Month to date precipitation 1.09 1.74  
Year to date precipitation 5.66 6.83  
Snow  
Snow T in 0.20 in 3.40 in (1890)
Month to date snowfall 8.1 5.5  
Since 1 July snowfall 50.3 38.3  
Snow Depth 0.00 in    
Sea Level Pressure  
Sea Level Pressure 29.83 in    
Wind  
Wind Speed 16 mph (WSW)    
Max Wind Speed 32 mph    
Max Gust Speed 46 mph    
Visibility 9 miles    
Events Rain , Snow    
T = Trace of Precipitation, MM = Missing Value Source: NWS Daily Summary

Daily Weather History Graph

Daily Weather History Graph

Search for Another Location

Airport or City:

Trip Planner

Search our weather history database for the weather conditions in past years. The results will help you decide how hot, cold, wet, or windy it might be!

Date:

Astronomy

Mar. 19, 2013 Rise Set
Actual Time 7:25 AM EDT 7:32 PM EDT
Civil Twilight 6:58 AM EDT 7:59 PM EDT
Nautical Twilight 6:26 AM EDT 8:31 PM EDT
Astronomical Twilight 5:54 AM EDT 9:03 PM EDT
Moon 12:13 PM EDT 2:19 AM EDT
Length of Visible Light 13h 01m
Length of Day
12h 06m
Waxing Crescent, 49% of the Moon is Illuminated
Mar 19
Waxing Crescent
Mar 19
First Quarter
Mar 27
Full
Apr 3
Last Quarter
Apr 10
New

Hourly Weather History & Observations

Time (EDT) Temp. Windchill Dew Point Humidity Pressure Visibility Wind Dir Wind Speed Gust Speed Precip Events Conditions
12:20 AM 39.2 °F 35.0 °F 37.4 °F 93% 29.67 in 3.0 mi SE 5.8 mph - 0.00 in   Light Drizzle
12:51 AM 39.9 °F 36.7 °F 37.0 °F 89% 29.72 in 2.5 mi SSE 4.6 mph - 0.00 in   Light Drizzle
1:51 AM 41.0 °F - 39.2 °F 93% 29.67 in 3.0 mi Calm Calm - N/A   Light Drizzle
2:13 AM 42.8 °F 36.2 °F 39.2 °F 87% 29.68 in 3.0 mi WNW 12.7 mph 17.3 mph 0.00 in   Drizzle
2:51 AM 43.0 °F 35.1 °F 37.9 °F 82% 29.75 in 10.0 mi West 17.3 mph 23.0 mph 0.01 in   Overcast
3:51 AM 37.9 °F 27.1 °F 34.0 °F 86% 29.78 in 5.0 mi WNW 23.0 mph 31.1 mph 0.00 in   Light Drizzle
4:23 AM 37.4 °F 28.5 °F 32.0 °F 81% 29.75 in 10.0 mi WNW 15.0 mph - 0.00 in   Overcast
4:51 AM 37.0 °F 29.3 °F 32.0 °F 82% 29.80 in 10.0 mi West 11.5 mph - 0.00 in   Overcast
5:51 AM 37.9 °F 33.5 °F 30.0 °F 73% 29.82 in 10.0 mi SW 5.8 mph - N/A   Overcast
6:51 AM 37.0 °F 31.6 °F 30.0 °F 76% 29.83 in 10.0 mi SW 6.9 mph - N/A   Overcast
7:51 AM 37.0 °F 31.6 °F 28.0 °F 70% 29.82 in 10.0 mi South 6.9 mph - N/A   Overcast
8:51 AM 37.9 °F 28.5 °F 27.0 °F 65% 29.80 in 10.0 mi SSW 17.3 mph 23.0 mph N/A   Overcast
9:51 AM 39.9 °F 31.4 °F 26.1 °F 58% 29.79 in 10.0 mi WSW 16.1 mph 26.5 mph N/A   Mostly Cloudy
10:51 AM 41.0 °F 33.5 °F 25.0 °F 53% 29.78 in 10.0 mi WSW 13.8 mph 26.5 mph 0.00 in   Scattered Clouds
11:51 AM 41.0 °F 32.2 °F 21.9 °F 47% 29.79 in 10.0 mi West 18.4 mph 38.0 mph N/A   Mostly Cloudy
12:51 PM 41.0 °F 31.1 °F 19.0 °F 41% 29.80 in 10.0 mi West 23.0 mph 36.8 mph N/A   Mostly Cloudy
1:51 PM 37.9 °F 27.6 °F 21.0 °F 51% 29.83 in 10.0 mi West 20.7 mph 34.5 mph N/A   Mostly Cloudy
2:51 PM 37.9 °F 26.3 °F 16.0 °F 41% 29.82 in 10.0 mi West 26.5 mph 35.7 mph N/A   Mostly Cloudy
3:51 PM 36.0 °F 24.7 °F 17.1 °F 46% 29.86 in 10.0 mi West 21.9 mph 29.9 mph N/A   Mostly Cloudy
4:51 PM 36.0 °F 24.4 °F 16.0 °F 44% 29.89 in 9.0 mi West 23.0 mph 40.3 mph 0.00 in Snow Light Snow
5:51 PM 35.1 °F 23.3 °F 18.0 °F 50% 29.91 in 10.0 mi West 23.0 mph 34.5 mph 0.00 in   Mostly Cloudy
6:51 PM 34.0 °F 22.4 °F 16.0 °F 48% 29.93 in 10.0 mi WSW 20.7 mph 32.2 mph N/A   Mostly Cloudy
7:51 PM 33.1 °F 20.9 °F 15.1 °F 48% 29.95 in 10.0 mi WNW 21.9 mph 33.4 mph N/A   Overcast
8:51 PM 32.0 °F 21.2 °F 14.0 °F 48% 29.96 in 10.0 mi West 16.1 mph 26.5 mph 0.00 in   Mostly Cloudy
9:51 PM 30.9 °F 19.8 °F 14.0 °F 50% 29.98 in 10.0 mi West 16.1 mph 23.0 mph N/A   Partly Cloudy
10:51 PM 30.9 °F 22.2 °F 15.1 °F 52% 29.99 in 10.0 mi West 10.4 mph 18.4 mph N/A   Partly Cloudy
11:51 PM 30.0 °F 20.5 °F 16.0 °F 56% 29.99 in 10.0 mi West 11.5 mph 17.3 mph N/A   Partly Cloudy